Terminal Aerodrome Forecast
Issued by NWS

Home | Current Version | Previous Version | Text Only | Print | Product List | Glossary On
Versions: 1 2 3 4 5 6 7 8 9 10 11 12 13 14 15 16 17 18
000
FTUS43 KGLD 151700
TAFMCK
TAF
KMCK 151721Z 1518/1618 22019G26KT P6SM BKN300
     FM160200 19012KT P6SM BKN200
     FM161000 31020G27KT P6SM SCT200=

USA.gov is the U.S. government's official web portal to all federal, state and local government web resources and services.